Regional Weather Roundup
Issued by NWS Jackson, KY

Home | Current Version | Previous Version | Graphics & Text | Print | Product List | Glossary On
Versions: 1 2 3 4 5 6 7 8 9 10 11 12 13 14 15 16 17 18 19 20 21 22 23 24 25 26 27 28 29 30 31 32 33 34 35 36 37 38 39 40 41 42 43 44 45 46 47 48 49 50
000
ASUS43 KJKL 242111
RWRJKL

EAST KENTUCKY HOURLY WEATHER ROUNDUP
NATIONAL WEATHER SERVICE JACKSON KY
500 PM EDT FRI OCT 24 2014

NOTE: "FAIR" INDICATES FEW OR NO CLOUDS BELOW 12,000 FEET WITH
NO SIGNIFICANT WEATHER AND/OR OBSTRUCTIONS TO VISIBILITY.

* THESE REPORTS ARE NOT UNDER NWS QUALITY CONTROL AND MAY NOT
  REPORT WEATHER SUCH AS PRECIPITATION AND FOG.

KYZ079-080-083-085-087-088-110-112-115-119-120-242200
...EASTERN KENTUCKY...

CITY           SKY/WX    TMP DP  RH WIND       PRES   REMARKS
JACKSON        SUNNY     63  38  39 VRB3      30.06S
LONDON         SUNNY     66  41  40 VRB3      30.05F
SOMERSET*      SUNNY     63  43  48 CALM      30.06F
MONTICELLO*    SUNNY     68  42  38 CALM      30.07F
WILLIAMSBURG*  SUNNY     66  41  39 CALM      30.05F
MIDDLESBORO*   SUNNY     67  41  39 CALM      30.04S
HARLAN APT*    CLEAR     64  34  32 N6        30.04S
BLACK MTN*       N/A     52  37  58 VRB1        N/A
PIKEVILLE APT* SUNNY     57  43  58 CALM      30.06F
BIG SANDY*     CLEAR     59  44  57 CALM      30.06F
MOREHEAD APT*  CLEAR     64  41  42 NW5       30.07F
$$

KYZ035-036-041-042-044-050-067-078-099-242200
...CENTRAL KENTUCKY...

CITY           SKY/WX    TMP DP  RH WIND       PRES   REMARKS
MT STERLING*   SUNNY     63  43  48 W5        30.06F
FLEMING/MASON* SUNNY     64  43  45 SW3       30.05F
DANVILLE*      SUNNY     63  41  45 NW6       30.07S
RICHMOND*      SUNNY     63  43  48 CALM      30.06S
LEXINGTON      SUNNY     65  42  43 SW6       30.05F
FRANKFORT      SUNNY     64  41  42 SW8       30.05S
$$

KYZ091>093-OHZ055-061-077-WVZ005-015-034-035-042-242200
...SOUTHERN OHIO/WEST VIRGINIA...

CITY           SKY/WX    TMP DP  RH WIND       PRES   REMARKS
COVINGTON      MOSUNNY   66  39  37 W6        30.04S
COLUMBUS       SUNNY     63  37  38 S5        30.01F
DAYTON         MOSUNNY   66  38  35 SW7       30.03S
WILMINGTON     SUNNY     64  38  38 W5        30.03S HAZE
HUNTINGTON     SUNNY     64  42  44 N3        30.03F
CHARLESTON     MOSUNNY   63  41  44 W6        30.04F
PINEVILLE*     SUNNY     59  48  66 MISG      30.10S
BECKLEY        SUNNY     58  38  47 N8        30.05S
BLUEFIELD      SUNNY     58  38  47 W9        30.05F
$$

VAZ002-007-008-TNZ017-027-036-066-071-242200
...SOUTHWEST VIRGINIA/EAST TENNESSEE...

CITY           SKY/WX    TMP DP  RH WIND       PRES   REMARKS
WISE*          SUNNY     59  37  44 N5        30.07F
JONESVILLE*    CLEAR     66  41  39 S3        30.06S
ABINGDON*      MOSUNNY   64  34  33 CALM      30.05S
BRISTOL        MOSUNNY   65  38  36 CALM      30.04F
KNOXVILLE      MOSUNNY   67  40  37 CALM      30.03F
OAK RIDGE      SUNNY     69  45  41 CALM      30.05S
CROSSVILLE     SUNNY     68  37  32 N7        30.06S
NASHVILLE      MOSUNNY   72  43  35 VRB3      30.06F
$$

...KEY TO REMARKS...
VSB - VISIBILITY IN MILES
WCI - WIND CHILL INDEX
HX  - HEAT INDEX

$$



USA.gov is the U.S. government's official web portal to all federal, state and local government web resources and services.